Weather History for Montrose, CO

Change the Weather History Date:

Sunday, May 27, 2012

  Actual Average Record
Temperature  
Mean Temperature 52 °F 62 °F  
Max Temperature 66 °F 78 °F 90 °F (2003)
Min Temperature 38 °F 46 °F 37 °F (1997)
Degree Days  
Heating Degree Days 13 4  
Month to date heating degree days 98 211  
Since 1 July heating degree days 5646 6149  
Cooling Degree Days 0 1  
Month to date cooling degree days 14 9  
Year to date cooling degree days 21 9  
Moisture  
Dew Point 11 °F    
Average Humidity 20    
Maximum Humidity 30    
Minimum Humidity 9    
Precipitation  
Precipitation 0.00 in 0.02 in 0.00 in (2014)
Month to date precipitation T 1.01  
Year to date precipitation 1.56 4.23  
Sea Level Pressure  
Sea Level Pressure 29.86 in    
Wind  
Wind Speed 12 mph (SSW)    
Max Wind Speed 29 mph    
Max Gust Speed 38 mph    
Visibility 10 miles    
Events      
T = Trace of Precipitation, MM = Missing Value Source: NWS Daily Summary

Daily Weather History Graph

Daily Weather History Graph

Search for Another Location

Airport:

Trip Planner

Search our weather history database for the weather conditions in past years. The results will help you decide how hot, cold, wet, or windy it might be!

Date:

Astronomy

May. 27, 2012 Rise Set
Actual Time 5:51 AM MDT 8:26 PM MDT
Civil Twilight 5:20 AM MDT 8:57 PM MDT
Nautical Twilight 4:42 AM MDT 9:36 PM MDT
Astronomical Twilight 3:59 AM MDT 10:19 PM MDT
Moon 11:57 AM MDT (5/27) 12:37 AM MDT (5/27)
Length of Visible Light 15h 37m
Length of Day
14h 35m
Waxing Crescent, 38% of the Moon is Illuminated
May 27
Waxing Crescent
May 28
First Quarter
Jun 4
Full
Jun 11
Last Quarter
Jun 19
New

Hourly Weather History & Observations

Time (MDT) Temp. Windchill Dew Point Humidity Pressure Visibility Wind Dir Wind Speed Gust Speed Precip Events Conditions
12:53 AM 43.0 °F 38.2 °F 6.1 °F 22% 29.78 in 10.0 mi ESE 8.1 mph - N/A   Clear
2:53 AM 43.0 °F 36.8 °F 7.0 °F 23% 29.78 in 10.0 mi SE 11.5 mph - N/A   Clear
3:53 AM 41.0 °F 35.8 °F 9.0 °F 27% 29.78 in 10.0 mi SE 8.1 mph - N/A   Clear
4:53 AM 39.9 °F 33.9 °F 10.0 °F 29% 29.79 in 10.0 mi ESE 9.2 mph - N/A   Clear
5:53 AM 37.9 °F 32.1 °F 9.0 °F 30% 29.83 in 10.0 mi East 8.1 mph - N/A   Clear
6:53 AM 43.0 °F 37.7 °F 12.0 °F 28% 29.84 in 10.0 mi SE 9.2 mph - N/A   Clear
7:53 AM 50.0 °F - 10.9 °F 21% 29.84 in 10.0 mi East 5.8 mph - N/A   Clear
8:53 AM 55.0 °F - 12.9 °F 19% 29.84 in 10.0 mi WSW 9.2 mph - N/A   Clear
9:53 AM 57.0 °F - 12.9 °F 18% 29.83 in 10.0 mi SSW 6.9 mph - N/A   Clear
10:53 AM 61.0 °F - 9.0 °F 13% 29.84 in 10.0 mi West 15.0 mph 23.0 mph N/A   Partly Cloudy
11:53 AM 63.0 °F - 3.0 °F 9% 29.84 in 10.0 mi West 20.7 mph 34.5 mph N/A   Partly Cloudy
12:53 PM 64.0 °F - 9.0 °F 12% 29.85 in 10.0 mi WSW 24.2 mph 38.0 mph N/A   Partly Cloudy
1:53 PM 64.9 °F - 10.0 °F 12% 29.85 in 10.0 mi WSW 21.9 mph 36.8 mph N/A   Clear
2:53 PM 63.0 °F - 16.0 °F 16% 29.88 in 10.0 mi West 21.9 mph 34.5 mph N/A   Clear
3:53 PM 64.0 °F - 18.0 °F 17% 29.88 in 10.0 mi WSW 20.7 mph 29.9 mph N/A   Clear
4:53 PM 64.9 °F - 14.0 °F 14% 29.89 in 10.0 mi West 16.1 mph 29.9 mph N/A   Clear
5:53 PM 64.0 °F - 12.0 °F 13% 29.91 in 10.0 mi WSW 19.6 mph 28.8 mph N/A   Partly Cloudy
6:53 PM 64.9 °F - 10.0 °F 12% 29.88 in 10.0 mi WNW 12.7 mph 21.9 mph N/A   Mostly Cloudy
7:53 PM 62.1 °F - 10.0 °F 13% 29.89 in 10.0 mi West 11.5 mph - N/A   Clear
8:53 PM 57.0 °F - 10.9 °F 16% 29.91 in 10.0 mi West 5.8 mph - N/A   Clear
9:53 PM 52.0 °F - 15.1 °F 23% 29.95 in 10.0 mi SSE 4.6 mph - N/A   Clear
10:53 PM 46.9 °F - 16.0 °F 29% 29.97 in 10.0 mi ESE 8.1 mph - N/A   Clear
11:53 PM 46.9 °F - 14.0 °F 27% 29.97 in 10.0 mi SSE 9.2 mph - N/A   Clear